| time (UTC) | temp F | wind direction | speed MPH | gust MPH | rain 1hr in | rain 24hr in | rain mn in | humidity % | barometer mb |
| 20260504141053 | 66 | 167 | 1.0 | 3.0 | 0.00 | 0.00 | 0.00 | 82 | 1018.8 |
| 20260504140550 | 65 | 344 | 0.0 | 2.0 | 0.00 | 0.00 | 0.00 | 86 | 1018.7 |
| 20260504130551 | 57 | 0 | 0.0 | 0.0 | 0.00 | 0.00 | 0.00 | 93 | 1018.6 |
| 20260504110548 | 52 | 0 | 0.0 | 0.0 | 0.00 | 0.00 | 0.00 | 92 | 1018.1 |
| 20260504100549 | 52 | 0 | 0.0 | 0.0 | 0.00 | 0.00 | 0.00 | 92 | 1018.1 |
| 20260504081553 | 54 | 0 | 0.0 | 0.0 | 0.00 | 0.00 | 0.00 | 91 | 1018.2 |
| 20260504081051 | 54 | 0 | 0.0 | 0.0 | 0.00 | 0.00 | 0.00 | 91 | 1018.3 |
| 20260504080549 | 54 | 0 | 0.0 | 0.0 | 0.00 | 0.00 | 0.00 | 91 | 1018.4 |
| 20260504050550 | 57 | 0 | 0.0 | 0.0 | 0.00 | 0.00 | 0.00 | 89 | 1019.5 |
| 20260504045550 | 57 | 0 | 0.0 | 0.0 | 0.00 | 0.00 | 0.00 | 89 | 1019.5 |
| 20260504045048 | 57 | 0 | 0.0 | 0.0 | 0.00 | 0.00 | 0.00 | 89 | 1019.5 |
| 20260504044551 | 57 | 0 | 0.0 | 0.0 | 0.00 | 0.00 | 0.00 | 89 | 1019.5 |
| 20260504044049 | 57 | 0 | 0.0 | 0.0 | 0.00 | 0.00 | 0.00 | 88 | 1019.6 |
| 20260504043549 | 57 | 0 | 0.0 | 0.0 | 0.00 | 0.00 | 0.00 | 88 | 1019.6 |
| 20260504043057 | 57 | 0 | 0.0 | 0.0 | 0.00 | 0.00 | 0.00 | 88 | 1019.6 |
| 20260504042548 | 57 | 0 | 0.0 | 0.0 | 0.00 | 0.00 | 0.00 | 88 | 1019.6 |
| 20260504042050 | 58 | 0 | 0.0 | 0.0 | 0.00 | 0.00 | 0.00 | 88 | 1019.6 |
| 20260504041553 | 58 | 0 | 0.0 | 0.0 | 0.00 | 0.00 | 0.00 | 88 | 1019.6 |
| 20260504041053 | 58 | 0 | 0.0 | 0.0 | 0.00 | 0.00 | 0.00 | 88 | 1019.6 |
| 20260504040548 | 58 | 0 | 0.0 | 0.0 | 0.00 | 0.00 | 0.00 | 87 | 1019.7 |
| 20260504040051 | 58 | 0 | 0.0 | 0.0 | 0.00 | 0.00 | 0.00 | 87 | 1019.7 |
| 20260504035548 | 58 | 0 | 0.0 | 0.0 | 0.00 | 0.00 | 0.00 | 87 | 1019.7 |
| 20260504035048 | 58 | 0 | 0.0 | 0.0 | 0.00 | 0.00 | 0.00 | 86 | 1019.7 |
| 20260504034552 | 58 | 0 | 0.0 | 0.0 | 0.00 | 0.00 | 0.00 | 86 | 1019.6 |
| 20260504034049 | 59 | 0 | 0.0 | 0.0 | 0.00 | 0.00 | 0.00 | 86 | 1019.6 |
| 20260504033551 | 59 | 0 | 0.0 | 1.0 | 0.00 | 0.00 | 0.00 | 86 | 1019.5 |
| 20260504033049 | 59 | 0 | 0.0 | 1.0 | 0.00 | 0.00 | 0.00 | 85 | 1019.5 |
| 20260504032552 | 59 | 188 | 0.0 | 1.0 | 0.00 | 0.00 | 0.00 | 85 | 1019.6 |
| 20260504032054 | 59 | 0 | 0.0 | 1.0 | 0.00 | 0.00 | 0.00 | 85 | 1019.6 |
| 20260504031553 | 59 | 0 | 0.0 | 1.0 | 0.00 | 0.00 | 0.00 | 84 | 1019.7 |
| 20260504031051 | 59 | 0 | 0.0 | 1.0 | 0.00 | 0.00 | 0.00 | 84 | 1019.6 |
| 20260504030551 | 60 | 188 | 0.0 | 1.0 | 0.00 | 0.00 | 0.00 | 84 | 1019.5 |
| 20260504030053 | 60 | 0 | 0.0 | 0.0 | 0.00 | 0.00 | 0.00 | 83 | 1019.5 |
| 20260504025551 | 60 | 0 | 0.0 | 0.0 | 0.00 | 0.00 | 0.00 | 83 | 1019.5 |
| 20260504025053 | 60 | 0 | 0.0 | 0.0 | 0.00 | 0.00 | 0.00 | 83 | 1019.5 |
| 20260504024553 | 60 | 0 | 0.0 | 0.0 | 0.00 | 0.00 | 0.00 | 82 | 1019.4 |
| 20260504024055 | 61 | 0 | 0.0 | 0.0 | 0.00 | 0.00 | 0.00 | 82 | 1019.4 |
| 20260504023553 | 61 | 0 | 0.0 | 0.0 | 0.00 | 0.00 | 0.00 | 82 | 1019.3 |
| 20260504023053 | 61 | 0 | 0.0 | 0.0 | 0.00 | 0.00 | 0.00 | 81 | 1019.3 |
| 20260504022553 | 61 | 0 | 0.0 | 0.0 | 0.00 | 0.00 | 0.00 | 80 | 1019.2 |
| 20260504022052 | 62 | 0 | 0.0 | 0.0 | 0.00 | 0.00 | 0.00 | 79 | 1019.3 |
| 20260504021557 | 62 | 0 | 0.0 | 0.0 | 0.00 | 0.00 | 0.00 | 78 | 1019.2 |
| 20260504021049 | 62 | 0 | 0.0 | 0.0 | 0.00 | 0.00 | 0.00 | 77 | 1019.2 |
| 20260504020552 | 63 | 0 | 0.0 | 0.0 | 0.00 | 0.00 | 0.00 | 77 | 1019.1 |
| 20260504020131 | 63 | 0 | 0.0 | 0.0 | 0.00 | 0.00 | 0.00 | 76 | 1018.9 |
| 20260504015552 | 64 | 0 | 0.0 | 0.0 | 0.00 | 0.00 | 0.00 | 75 | 1018.9 |
| 20260504015054 | 64 | 0 | 0.0 | 0.0 | 0.00 | 0.00 | 0.00 | 75 | 1018.8 |
| 20260504014603 | 64 | 0 | 0.0 | 0.0 | 0.00 | 0.00 | 0.00 | 74 | 1018.8 |
| 20260504014051 | 65 | 0 | 0.0 | 0.0 | 0.00 | 0.00 | 0.00 | 72 | 1018.8 |
| 20260504013553 | 66 | 0 | 0.0 | 0.0 | 0.00 | 0.00 | 0.00 | 71 | 1018.7 |
| 20260504013116 | 66 | 0 | 0.0 | 0.0 | 0.00 | 0.00 | 0.00 | 71 | 1018.7 |
| 20260504012552 | 67 | 0 | 0.0 | 0.0 | 0.00 | 0.00 | 0.00 | 69 | 1018.7 |
| 20260504012055 | 68 | 0 | 0.0 | 0.0 | 0.00 | 0.00 | 0.00 | 68 | 1018.6 |
| 20260504011558 | 68 | 0 | 0.0 | 0.0 | 0.00 | 0.00 | 0.00 | 66 | 1018.6 |
| 20260504011052 | 69 | 0 | 0.0 | 0.0 | 0.00 | 0.00 | 0.00 | 65 | 1018.5 |
| 20260504010553 | 69 | 0 | 0.0 | 0.0 | 0.00 | 0.00 | 0.00 | 64 | 1018.4 |
| 20260504010057 | 70 | 0 | 0.0 | 1.0 | 0.00 | 0.00 | 0.00 | 63 | 1018.3 |
| 20260504005552 | 70 | 0 | 0.0 | 1.0 | 0.00 | 0.00 | 0.00 | 63 | 1018.5 |
| 20260504005053 | 71 | 0 | 0.0 | 0.0 | 0.00 | 0.00 | 0.00 | 62 | 1018.4 |
| 20260504004630 | 71 | 0 | 0.0 | 0.0 | 0.00 | 0.00 | 0.00 | 61 | 1018.4 |
| 20260504004053 | 72 | 0 | 0.0 | 0.0 | 0.00 | 0.00 | 0.00 | 60 | 1018.3 |
| 20260504003552 | 72 | 0 | 0.0 | 1.0 | 0.00 | 0.00 | 0.00 | 58 | 1018.3 |
| 20260504003101 | 73 | 0 | 0.0 | 1.0 | 0.00 | 0.00 | 0.00 | 57 | 1018.3 |
| 20260504002551 | 73 | 0 | 0.0 | 1.0 | 0.00 | 0.00 | 0.00 | 57 | 1018.2 |
| 20260504002053 | 74 | 0 | 0.0 | 2.0 | 0.00 | 0.00 | 0.00 | 56 | 1018.2 |
| 20260504001621 | 74 | 0 | 0.0 | 2.0 | 0.00 | 0.00 | 0.00 | 54 | 1018.2 |
| 20260504001053 | 74 | 0 | 0.0 | 2.0 | 0.00 | 0.00 | 0.00 | 51 | 1018.2 |
| 20260504000552 | 74 | 0 | 1.0 | 3.0 | 0.00 | 0.00 | 0.00 | 50 | 1018.2 |
| 20260504000105 | 75 | 0 | 0.0 | 4.0 | 0.00 | 0.00 | 0.00 | 50 | 1018.2 |
| 20260503235550 | 75 | 221 | 1.0 | 8.0 | 0.00 | 0.00 | 0.00 | 48 | 1018.3 |
| 20260503235054 | 75 | 200 | 1.0 | 8.0 | 0.00 | 0.00 | 0.00 | 47 | 1018.3 |
| 20260503234606 | 75 | 236 | 3.0 | 8.0 | 0.00 | 0.00 | 0.00 | 46 | 1018.5 |
| 20260503234054 | 75 | 228 | 2.0 | 6.0 | 0.00 | 0.00 | 0.00 | 48 | 1018.5 |
| 20260503233553 | 75 | 185 | 1.0 | 8.0 | 0.00 | 0.00 | 0.00 | 47 | 1018.4 |
| 20260503233100 | 76 | 219 | 3.0 | 8.0 | 0.00 | 0.00 | 0.00 | 45 | 1018.5 |
| 20260503232552 | 76 | 232 | 2.0 | 8.0 | 0.00 | 0.00 | 0.00 | 45 | 1018.5 |
| 20260503232051 | 77 | 255 | 2.0 | 8.0 | 0.00 | 0.00 | 0.00 | 45 | 1018.5 |
| 20260503231553 | 77 | 234 | 2.0 | 8.0 | 0.00 | 0.00 | 0.00 | 43 | 1018.6 |
| 20260503231053 | 77 | 193 | 1.0 | 8.0 | 0.00 | 0.00 | 0.00 | 44 | 1018.5 |
| 20260503230555 | 77 | 219 | 2.0 | 8.0 | 0.00 | 0.00 | 0.00 | 44 | 1018.5 |
| 20260503230110 | 77 | 242 | 2.0 | 7.0 | 0.00 | 0.00 | 0.00 | 43 | 1018.5 |
| 20260503225553 | 77 | 207 | 2.0 | 4.0 | 0.00 | 0.00 | 0.00 | 44 | 1018.6 |
| 20260503225053 | 77 | 206 | 1.0 | 8.0 | 0.00 | 0.00 | 0.00 | 45 | 1018.6 |
| 20260503224559 | 77 | 227 | 2.0 | 8.0 | 0.00 | 0.00 | 0.00 | 45 | 1018.6 |
| 20260503224052 | 77 | 213 | 3.0 | 8.0 | 0.00 | 0.00 | 0.00 | 42 | 1018.6 |
| 20260503223553 | 77 | 240 | 2.0 | 6.0 | 0.00 | 0.00 | 0.00 | 43 | 1018.6 |
| 20260503223053 | 77 | 245 | 1.0 | 8.0 | 0.00 | 0.00 | 0.00 | 41 | 1018.6 |
| 20260503222554 | 77 | 196 | 3.0 | 8.0 | 0.00 | 0.00 | 0.00 | 41 | 1018.6 |
| 20260503222051 | 77 | 234 | 3.0 | 8.0 | 0.00 | 0.00 | 0.00 | 41 | 1018.8 |
| 20260503221602 | 77 | 228 | 3.0 | 11.0 | 0.00 | 0.00 | 0.00 | 43 | 1018.7 |
| 20260503221052 | 77 | 327 | 2.0 | 11.0 | 0.00 | 0.00 | 0.00 | 42 | 1018.6 |
| 20260503220554 | 77 | 209 | 3.0 | 9.0 | 0.00 | 0.00 | 0.00 | 42 | 1018.7 |
| 20260503220058 | 77 | 240 | 4.0 | 9.0 | 0.00 | 0.00 | 0.00 | 44 | 1018.8 |
| 20260503215552 | 77 | 245 | 4.0 | 9.0 | 0.00 | 0.00 | 0.00 | 42 | 1018.9 |
| 20260503215051 | 77 | 211 | 5.0 | 9.0 | 0.00 | 0.00 | 0.00 | 44 | 1019.0 |
| 20260503214600 | 77 | 243 | 4.0 | 9.0 | 0.00 | 0.00 | 0.00 | 42 | 1019.1 |
| 20260503214051 | 77 | 182 | 3.0 | 11.0 | 0.00 | 0.00 | 0.00 | 42 | 1019.1 |
| 20260503213553 | 76 | 209 | 3.0 | 11.0 | 0.00 | 0.00 | 0.00 | 43 | 1019.2 |
| 20260503213059 | 76 | 232 | 4.0 | 11.0 | 0.00 | 0.00 | 0.00 | 43 | 1019.3 |
| 20260503212553 | 76 | 190 | 4.0 | 10.0 | 0.00 | 0.00 | 0.00 | 43 | 1019.4 |
| 20260503212050 | 76 | 157 | 4.0 | 10.0 | 0.00 | 0.00 | 0.00 | 43 | 1019.6 |
| 20260503211557 | 76 | 237 | 4.0 | 10.0 | 0.00 | 0.00 | 0.00 | 42 | 1019.5 |
| 20260503211056 | 76 | 192 | 4.0 | 10.0 | 0.00 | 0.00 | 0.00 | 41 | 1019.6 |
| 20260503210552 | 77 | 290 | 4.0 | 10.0 | 0.00 | 0.00 | 0.00 | 41 | 1019.6 |
| 20260503210052 | 77 | 252 | 3.0 | 10.0 | 0.00 | 0.00 | 0.00 | 41 | 1019.7 |
| 20260503205552 | 77 | 268 | 5.0 | 10.0 | 0.00 | 0.00 | 0.00 | 41 | 1019.7 |
| 20260503205052 | 78 | 257 | 4.0 | 11.0 | 0.00 | 0.00 | 0.00 | 41 | 1019.7 |
| 20260503204556 | 78 | 288 | 3.0 | 13.0 | 0.00 | 0.00 | 0.00 | 42 | 1019.7 |
| 20260503204053 | 78 | 217 | 3.0 | 13.0 | 0.00 | 0.00 | 0.00 | 40 | 1019.8 |
| 20260503203551 | 79 | 246 | 5.0 | 13.0 | 0.00 | 0.00 | 0.00 | 40 | 1019.9 |
| 20260503203108 | 79 | 192 | 4.0 | 11.0 | 0.00 | 0.00 | 0.00 | 38 | 1019.9 |
| 20260503202551 | 80 | 249 | 4.0 | 8.0 | 0.00 | 0.00 | 0.00 | 38 | 1020.0 |
| 20260503202053 | 80 | 220 | 3.0 | 8.0 | 0.00 | 0.00 | 0.00 | 38 | 1020.1 |
| 20260503201556 | 80 | 209 | 1.0 | 9.0 | 0.00 | 0.00 | 0.00 | 36 | 1020.1 |
| 20260503201051 | 80 | 217 | 4.0 | 9.0 | 0.00 | 0.00 | 0.00 | 34 | 1020.2 |
| 20260503200554 | 79 | 175 | 2.0 | 10.0 | 0.00 | 0.00 | 0.00 | 37 | 1020.2 |
| 20260503200054 | 79 | 321 | 3.0 | 10.0 | 0.00 | 0.00 | 0.00 | 36 | 1020.4 |
| 20260503195551 | 80 | 44 | 2.0 | 6.0 | 0.00 | 0.00 | 0.00 | 34 | 1020.4 |
| 20260503195053 | 80 | 323 | 3.0 | 6.0 | 0.00 | 0.00 | 0.00 | 36 | 1020.5 |
| 20260503194557 | 80 | 336 | 2.0 | 4.0 | 0.00 | 0.00 | 0.00 | 33 | 1020.6 |
| 20260503194052 | 81 | 337 | 2.0 | 5.0 | 0.00 | 0.00 | 0.00 | 34 | 1020.7 |
| 20260503193552 | 81 | 42 | 2.0 | 5.0 | 0.00 | 0.00 | 0.00 | 32 | 1020.8 |
| 20260503193059 | 79 | 185 | 1.0 | 8.0 | 0.00 | 0.00 | 0.00 | 35 | 1020.9 |
| 20260503192551 | 78 | 317 | 3.0 | 8.0 | 0.00 | 0.00 | 0.00 | 35 | 1021.0 |
| 20260503192051 | 78 | 290 | 3.0 | 8.0 | 0.00 | 0.00 | 0.00 | 35 | 1021.0 |
| 20260503191556 | 79 | 44 | 3.0 | 8.0 | 0.00 | 0.00 | 0.00 | 33 | 1021.2 |
| 20260503191052 | 79 | 214 | 2.0 | 8.0 | 0.00 | 0.00 | 0.00 | 32 | 1021.2 |
| 20260503190553 | 78 | 0 | 1.0 | 8.0 | 0.00 | 0.00 | 0.00 | 33 | 1021.1 |
| 20260503190106 | 78 | 294 | 4.0 | 8.0 | 0.00 | 0.00 | 0.00 | 33 | 1021.2 |
| 20260503185553 | 78 | 274 | 2.0 | 8.0 | 0.00 | 0.00 | 0.00 | 35 | 1021.3 |
| 20260503185053 | 78 | 38 | 2.0 | 8.0 | 0.00 | 0.00 | 0.00 | 35 | 1021.4 |
| 20260503184554 | 78 | 51 | 3.0 | 8.0 | 0.00 | 0.00 | 0.00 | 36 | 1021.5 |
| 20260503184050 | 77 | 225 | 2.0 | 8.0 | 0.00 | 0.00 | 0.00 | 36 | 1021.6 |
| 20260503183551 | 77 | 58 | 3.0 | 8.0 | 0.00 | 0.00 | 0.00 | 37 | 1021.6 |
| 20260503183055 | 79 | 109 | 2.0 | 8.0 | 0.00 | 0.00 | 0.00 | 34 | 1021.7 |
| 20260503182553 | 79 | 262 | 3.0 | 8.0 | 0.00 | 0.00 | 0.00 | 34 | 1021.7 |
| 20260503182051 | 78 | 271 | 2.0 | 8.0 | 0.00 | 0.00 | 0.00 | 34 | 1021.8 |
| 20260503181600 | 79 | 88 | 2.0 | 6.0 | 0.00 | 0.00 | 0.00 | 32 | 1021.8 |
| 20260503181052 | 79 | 261 | 2.0 | 6.0 | 0.00 | 0.00 | 0.00 | 34 | 1021.9 |
| 20260503180552 | 78 | 281 | 1.0 | 6.0 | 0.00 | 0.00 | 0.00 | 34 | 1022.1 |
| 20260503180055 | 78 | 23 | 2.0 | 6.0 | 0.00 | 0.00 | 0.00 | 34 | 1022.1 |
| 20260503175552 | 78 | 111 | 3.0 | 6.0 | 0.00 | 0.00 | 0.00 | 38 | 1022.0 |
| 20260503175053 | 79 | 360 | 1.0 | 5.0 | 0.00 | 0.00 | 0.00 | 34 | 1022.1 |
| 20260503174555 | 78 | 0 | 1.0 | 8.0 | 0.00 | 0.00 | 0.00 | 35 | 1022.1 |
| 20260503174055 | 78 | 234 | 2.0 | 8.0 | 0.00 | 0.00 | 0.00 | 34 | 1022.3 |
| 20260503173553 | 77 | 311 | 1.0 | 5.0 | 0.00 | 0.00 | 0.00 | 35 | 1022.4 |
| 20260503173053 | 77 | 36 | 1.0 | 7.0 | 0.00 | 0.00 | 0.00 | 35 | 1022.4 |
| 20260503172553 | 76 | 14 | 2.0 | 7.0 | 0.00 | 0.00 | 0.00 | 35 | 1022.5 |
| 20260503172051 | 76 | 112 | 2.0 | 5.0 | 0.00 | 0.00 | 0.00 | 38 | 1022.6 |
| 20260503171553 | 76 | 17 | 1.0 | 8.0 | 0.00 | 0.00 | 0.00 | 37 | 1022.7 |
| 20260503171052 | 75 | 99 | 1.0 | 8.0 | 0.00 | 0.00 | 0.00 | 39 | 1022.8 |
| 20260503170552 | 76 | 5 | 2.0 | 9.0 | 0.00 | 0.00 | 0.00 | 38 | 1022.9 |
| 20260503150555 | 73 | 290 | 2.0 | 5.0 | 0.00 | 0.00 | 0.00 | 46 | 1023.0 |